| time (UTC) | temp F | wind direction | speed knots | gust knots | rain 1hr in | rain 24hr in | rain mn in | humidity % | barometer mb |
| 20260509090149 | 50 | 320 | 0.0 | 0.0 | 0.00 | 0.00 | 0.00 | 97 | 1010.1 |
| 20260509085116 | 50 | 320 | 0.0 | 0.0 | 0.00 | 0.00 | 0.00 | 97 | 1009.9 |
| 20260509084116 | 50 | 320 | 0.0 | 0.0 | 0.00 | 0.00 | 0.00 | 97 | 1009.9 |
| 20260509082018 | 50 | 320 | 0.0 | 0.0 | 0.00 | 0.00 | 0.00 | 97 | 1009.9 |
| 20260509081002 | 50 | 327 | 0.0 | 0.0 | 0.00 | 0.00 | 0.00 | 98 | 1009.9 |
| 20260509080011 | 50 | 309 | 0.0 | 0.0 | 0.00 | 0.00 | 0.00 | 97 | 1009.7 |
| 20260509075024 | 50 | 309 | 0.0 | 0.0 | 0.00 | 0.00 | 0.00 | 97 | 1009.6 |
| 20260509074031 | 50 | 351 | 0.0 | 0.0 | 0.00 | 0.00 | 0.00 | 97 | 1009.3 |
| 20260509073022 | 50 | 351 | 0.0 | 0.0 | 0.00 | 0.00 | 0.00 | 97 | 1009.5 |
| 20260509071949 | 50 | 351 | 0.0 | 0.0 | 0.00 | 0.00 | 0.00 | 97 | 1009.8 |
| 20260509070915 | 50 | 351 | 0.0 | 0.0 | 0.00 | 0.00 | 0.00 | 97 | 1010.0 |
| 20260509065917 | 50 | 351 | 0.0 | 0.0 | 0.00 | 0.00 | 0.00 | 97 | 1010.0 |
| 20260509064909 | 50 | 351 | 0.0 | 0.0 | 0.00 | 0.00 | 0.00 | 97 | 1010.4 |
| 20260509063910 | 51 | 351 | 0.0 | 0.0 | 0.00 | 0.00 | 0.00 | 97 | 1010.5 |
| 20260509060614 | 51 | 351 | 0.0 | 0.0 | 0.00 | 0.00 | 0.00 | 97 | 1011.2 |
| 20260509055609 | 51 | 351 | 0.0 | 0.0 | 0.00 | 0.00 | 0.00 | 97 | 1011.0 |
| 20260509054611 | 51 | 351 | 0.0 | 0.0 | 0.00 | 0.00 | 0.00 | 97 | 1011.2 |
| 20260509053613 | 52 | 351 | 0.0 | 0.0 | 0.00 | 0.00 | 0.00 | 97 | 1011.2 |
| 20260509052616 | 52 | 351 | 0.0 | 0.0 | 0.00 | 0.00 | 0.00 | 97 | 1011.3 |
| 20260509045354 | 53 | 351 | 0.0 | 0.0 | 0.00 | 0.00 | 0.00 | 96 | 1011.2 |
| 20260509043235 | 53 | 351 | 0.0 | 0.0 | 0.00 | 0.00 | 0.00 | 96 | 1011.7 |
| 20260509042233 | 53 | 351 | 0.0 | 0.0 | 0.00 | 0.00 | 0.00 | 96 | 1011.8 |
| 20260509041226 | 53 | 351 | 0.0 | 0.0 | 0.00 | 0.00 | 0.00 | 96 | 1011.9 |
| 20260509035109 | 54 | 351 | 0.0 | 0.0 | 0.00 | 0.00 | 0.00 | 96 | 1012.1 |
| 20260509034112 | 54 | 351 | 0.0 | 0.0 | 0.00 | 0.00 | 0.00 | 96 | 1012.2 |
| 20260509033051 | 54 | 351 | 0.0 | 0.0 | 0.00 | 0.00 | 0.00 | 96 | 1012.1 |
| 20260509030934 | 54 | 344 | 0.0 | 0.0 | 0.00 | 0.00 | 0.00 | 96 | 1012.6 |
| 20260509025954 | 54 | 9 | 0.0 | 0.0 | 0.00 | 0.00 | 0.00 | 96 | 1012.6 |
| 20260509023829 | 55 | 49 | 0.0 | 0.0 | 0.00 | 0.00 | 0.00 | 96 | 1012.5 |
| 20260509022847 | 55 | 49 | 0.0 | 0.0 | 0.00 | 0.00 | 0.00 | 96 | 1012.4 |
| 20260509021814 | 55 | 49 | 0.0 | 0.0 | 0.00 | 0.00 | 0.00 | 96 | 1012.3 |
| 20260509020821 | 55 | 49 | 0.0 | 0.0 | 0.00 | 0.00 | 0.00 | 96 | 1012.3 |
| 20260509013603 | 56 | 288 | 0.0 | 0.0 | 0.00 | 0.00 | 0.00 | 95 | 1012.2 |
| 20260509011406 | 56 | 94 | 0.0 | 0.0 | 0.00 | 0.00 | 0.00 | 95 | 1012.3 |
| 20260509010408 | 57 | 94 | 0.0 | 0.0 | 0.00 | 0.00 | 0.00 | 95 | 1012.2 |
| 20260509005418 | 57 | 94 | 0.0 | 0.0 | 0.00 | 0.00 | 0.00 | 94 | 1012.5 |
| 20260509004442 | 57 | 95 | 0.0 | 0.0 | 0.00 | 0.00 | 0.00 | 94 | 1012.4 |
| 20260509003428 | 58 | 96 | 0.0 | 0.0 | 0.00 | 0.00 | 0.00 | 94 | 1012.4 |
| 20260509002423 | 58 | 96 | 0.0 | 0.0 | 0.00 | 0.00 | 0.00 | 93 | 1012.4 |
| 20260509001416 | 58 | 104 | 0.0 | 0.0 | 0.00 | 0.00 | 0.00 | 92 | 1012.4 |
| 20260509000428 | 59 | 124 | 0.0 | 0.0 | 0.00 | 0.00 | 0.00 | 91 | 1012.2 |
| 20260508235411 | 59 | 103 | 0.0 | 0.0 | 0.00 | 0.00 | 0.00 | 91 | 1012.1 |
| 20260508234404 | 60 | 102 | 0.0 | 0.0 | 0.00 | 0.00 | 0.00 | 90 | 1012.1 |
| 20260508233409 | 60 | 94 | 0.0 | 0.0 | 0.00 | 0.00 | 0.00 | 90 | 1012.1 |
| 20260508232423 | 61 | 94 | 0.0 | 0.0 | 0.00 | 0.00 | 0.00 | 89 | 1012.0 |
| 20260508231435 | 61 | 94 | 0.0 | 0.0 | 0.00 | 0.00 | 0.00 | 89 | 1011.9 |
| 20260508230403 | 62 | 94 | 0.0 | 0.0 | 0.00 | 0.00 | 0.00 | 88 | 1012.0 |
| 20260508225410 | 62 | 94 | 0.0 | 0.0 | 0.00 | 0.00 | 0.00 | 86 | 1012.1 |
| 20260508224341 | 63 | 105 | 0.0 | 0.0 | 0.00 | 0.00 | 0.00 | 83 | 1012.1 |
| 20260508223400 | 63 | 105 | 0.0 | 0.0 | 0.00 | 0.00 | 0.00 | 83 | 1011.9 |
| 20260508221239 | 63 | 138 | 0.0 | 0.0 | 0.00 | 0.00 | 0.00 | 82 | 1011.8 |
| 20260508220222 | 64 | 138 | 0.0 | 0.0 | 0.00 | 0.00 | 0.00 | 79 | 1011.8 |
| 20260508215218 | 64 | 138 | 0.0 | 0.0 | 0.00 | 0.00 | 0.00 | 79 | 1011.9 |
| 20260508214232 | 64 | 63 | 0.0 | 0.0 | 0.00 | 0.00 | 0.00 | 71 | 1011.8 |
| 20260508213219 | 65 | 36 | 0.0 | 0.0 | 0.00 | 0.00 | 0.00 | 67 | 1011.7 |
| 20260508212226 | 65 | 65 | 0.0 | 0.9 | 0.00 | 0.00 | 0.00 | 71 | 1011.7 |
| 20260508211207 | 66 | 334 | 0.0 | 2.6 | 0.00 | 0.00 | 0.00 | 65 | 1011.9 |
| 20260508210200 | 66 | 38 | 0.0 | 4.3 | 0.00 | 0.00 | 0.00 | 60 | 1012.0 |
| 20260508205216 | 67 | 284 | 0.9 | 4.3 | 0.00 | 0.00 | 0.00 | 61 | 1011.8 |
| 20260508201952 | 67 | 78 | 0.0 | 2.6 | 0.00 | 0.00 | 0.00 | 60 | 1012.0 |
| 20260508200958 | 66 | 71 | 0.0 | 2.6 | 0.00 | 0.00 | 0.00 | 62 | 1012.0 |
| 20260508194842 | 67 | 305 | 0.9 | 7.0 | 0.00 | 0.00 | 0.00 | 59 | 1012.5 |
| 20260508193833 | 67 | 111 | 1.7 | 7.0 | 0.00 | 0.00 | 0.00 | 57 | 1012.5 |
| 20260508192809 | 68 | 303 | 0.9 | 4.3 | 0.00 | 0.00 | 0.00 | 59 | 1012.4 |
| 20260508191827 | 68 | 264 | 0.9 | 2.6 | 0.00 | 0.00 | 0.00 | 56 | 1012.5 |
| 20260508190836 | 68 | 107 | 0.9 | 4.3 | 0.00 | 0.00 | 0.00 | 59 | 1012.7 |
| 20260508185830 | 68 | 206 | 0.9 | 4.3 | 0.00 | 0.00 | 0.00 | 55 | 1013.0 |
| 20260508184851 | 68 | 212 | 0.9 | 4.3 | 0.00 | 0.00 | 0.00 | 58 | 1013.1 |
| 20260508183826 | 69 | 232 | 0.9 | 4.3 | 0.00 | 0.00 | 0.00 | 57 | 1013.3 |
| 20260508182841 | 68 | 40 | 0.9 | 7.0 | 0.00 | 0.00 | 0.00 | 57 | 1013.2 |
| 20260508181817 | 68 | 75 | 0.9 | 7.0 | 0.00 | 0.00 | 0.00 | 59 | 1013.5 |
| 20260508180818 | 67 | 26 | 0.9 | 7.0 | 0.00 | 0.00 | 0.00 | 60 | 1013.5 |
| 20260508175751 | 67 | 177 | 0.9 | 7.0 | 0.00 | 0.00 | 0.00 | 62 | 1013.8 |
| 20260508174718 | 67 | 32 | 0.9 | 5.2 | 0.00 | 0.00 | 0.00 | 63 | 1013.7 |
| 20260508173653 | 65 | 37 | 0.9 | 7.0 | 0.00 | 0.00 | 0.00 | 60 | 1014.1 |
| 20260508172657 | 65 | 303 | 1.7 | 7.0 | 0.00 | 0.00 | 0.00 | 61 | 1014.1 |
| 20260508171657 | 66 | 229 | 0.9 | 7.0 | 0.00 | 0.00 | 0.00 | 61 | 1014.1 |
| 20260508165546 | 65 | 263 | 0.9 | 4.3 | 0.00 | 0.00 | 0.00 | 62 | 1014.5 |
| 20260508164516 | 66 | 316 | 0.9 | 3.5 | 0.00 | 0.00 | 0.00 | 67 | 1014.7 |
| 20260508163442 | 64 | 255 | 0.0 | 1.7 | 0.00 | 0.00 | 0.00 | 64 | 1014.9 |
| 20260508162444 | 66 | 277 | 0.9 | 5.2 | 0.00 | 0.00 | 0.00 | 63 | 1014.9 |
| 20260508161431 | 64 | 320 | 0.0 | 4.3 | 0.00 | 0.00 | 0.00 | 63 | 1015.1 |
| 20260508160413 | 64 | 28 | 0.9 | 4.3 | 0.00 | 0.00 | 0.00 | 66 | 1015.3 |
| 20260508155429 | 63 | 54 | 0.0 | 2.6 | 0.00 | 0.00 | 0.00 | 68 | 1015.3 |
| 20260508154453 | 61 | 29 | 0.0 | 4.3 | 0.00 | 0.00 | 0.00 | 73 | 1015.5 |
| 20260508153455 | 62 | 86 | 0.9 | 4.3 | 0.00 | 0.00 | 0.00 | 70 | 1015.4 |
| 20260508152447 | 61 | 42 | 0.9 | 3.5 | 0.00 | 0.00 | 0.00 | 69 | 1015.8 |
| 20260508151426 | 62 | 90 | 0.0 | 5.2 | 0.00 | 0.00 | 0.00 | 68 | 1015.9 |
| 20260508150405 | 61 | 47 | 0.9 | 5.2 | 0.00 | 0.00 | 0.00 | 72 | 1015.8 |
| 20260508145356 | 60 | 322 | 0.9 | 4.3 | 0.00 | 0.00 | 0.00 | 75 | 1015.8 |
| 20260508144407 | 59 | 30 | 0.9 | 3.5 | 0.00 | 0.00 | 0.00 | 75 | 1015.9 |
| 20260508143416 | 59 | 327 | 0.0 | 1.7 | 0.00 | 0.00 | 0.00 | 76 | 1016.0 |
| 20260508142415 | 58 | 350 | 0.0 | 0.9 | 0.00 | 0.00 | 0.00 | 81 | 1015.9 |
| 20260508141420 | 57 | 292 | 0.0 | 2.6 | 0.00 | 0.00 | 0.00 | 80 | 1016.1 |
| 20260508140358 | 56 | 300 | 0.0 | 0.0 | 0.00 | 0.00 | 0.00 | 85 | 1016.0 |
| 20260508135413 | 54 | 105 | 0.0 | 0.0 | 0.00 | 0.00 | 0.00 | 98 | 1016.0 |
| 20260508134343 | 52 | 166 | 0.0 | 0.0 | 0.00 | 0.00 | 0.00 | 98 | 1016.3 |
| 20260508131122 | 50 | 201 | 0.0 | 0.0 | 0.00 | 0.00 | 0.00 | 98 | 1016.5 |
| 20260508130122 | 49 | 312 | 0.0 | 0.0 | 0.00 | 0.00 | 0.00 | 98 | 1016.5 |
| 20260508125117 | 49 | 312 | 0.0 | 0.0 | 0.00 | 0.00 | 0.00 | 98 | 1016.3 |
| 20260508124138 | 48 | 312 | 0.0 | 0.0 | 0.00 | 0.00 | 0.00 | 98 | 1016.2 |
| 20260508123143 | 48 | 312 | 0.0 | 0.0 | 0.00 | 0.00 | 0.00 | 98 | 1016.0 |
| 20260508120956 | 47 | 312 | 0.0 | 0.0 | 0.00 | 0.00 | 0.00 | 98 | 1015.8 |
| 20260508115934 | 47 | 312 | 0.0 | 0.0 | 0.00 | 0.00 | 0.00 | 98 | 1015.5 |
| 20260508114913 | 47 | 312 | 0.0 | 0.0 | 0.00 | 0.00 | 0.00 | 98 | 1015.3 |
| 20260508113926 | 46 | 312 | 0.0 | 0.0 | 0.00 | 0.00 | 0.00 | 97 | 1015.2 |
| 20260508112904 | 46 | 312 | 0.0 | 0.0 | 0.00 | 0.00 | 0.00 | 98 | 1015.2 |
| 20260508111923 | 46 | 312 | 0.0 | 0.0 | 0.00 | 0.00 | 0.00 | 97 | 1014.9 |
| 20260508110937 | 46 | 312 | 0.0 | 0.9 | 0.00 | 0.00 | 0.00 | 97 | 1014.7 |
| 20260508105956 | 46 | 312 | 0.0 | 0.0 | 0.00 | 0.00 | 0.00 | 97 | 1014.3 |
| 20260508105003 | 46 | 312 | 0.0 | 0.0 | 0.00 | 0.00 | 0.00 | 97 | 1014.1 |
| 20260508103929 | 46 | 312 | 0.0 | 0.0 | 0.00 | 0.00 | 0.00 | 97 | 1014.0 |
| 20260508102921 | 46 | 312 | 0.0 | 0.0 | 0.00 | 0.00 | 0.00 | 97 | 1013.9 |
| 20260508101908 | 45 | 312 | 0.0 | 0.0 | 0.00 | 0.00 | 0.00 | 97 | 1013.7 |
| 20260508100920 | 45 | 312 | 0.0 | 0.0 | 0.00 | 0.00 | 0.00 | 97 | 1013.6 |
| 20260508095928 | 45 | 312 | 0.0 | 0.0 | 0.00 | 0.00 | 0.00 | 97 | 1013.6 |
| 20260508094939 | 45 | 312 | 0.0 | 0.9 | 0.00 | 0.00 | 0.00 | 97 | 1013.3 |
| 20260508093931 | 45 | 312 | 0.0 | 0.0 | 0.00 | 0.00 | 0.00 | 97 | 1013.3 |
| 20260508092910 | 45 | 286 | 0.0 | 1.7 | 0.00 | 0.00 | 0.00 | 97 | 1013.2 |
| 20260508091912 | 45 | 340 | 0.0 | 0.0 | 0.00 | 0.00 | 0.00 | 97 | 1013.1 |
| 20260508090910 | 45 | 340 | 0.0 | 0.0 | 0.00 | 0.00 | 0.00 | 97 | 1012.9 |